Wind_Speed
17 17 17 17 16 15 14 14 13 12 11 10 10 10 10 10 9 8 8 8 8 8 9 9 10 10 10 10 9 9 9 8 7 6 5 5 6 6 6 7 5 5 5 5 5 5 5 7 9 12 15 17 18 18 20 20 18 15 14 17 21 21 17 12 7 2 5 10 7 2 3 7 9 8 4 5 6 3 4 4 6 9 8 7 5 4 3 2
16 16 16 17 16 16 14 13 13 12 11 10 10 10 10 10 9 8 7 7 7 7 8 8 9 10 9 9 8 8 7 7 6 5 5 5 6 5 6 8 6 5 6 7 7 8 9 10 10 8 9 13 16 18 19 19 18 17 17 19 22 19 14 9 8 5 9 9 4 2 5 6 6 6 1 4 3 1 1 1 5 7 6 5 3 2 2 4
16 16 16 16 16 16 15 13 13 12 11 10 9 9 9 9 9 9 7 6 6 6 7 8 9 9 9 8 8 7 6 6 5 4 4 4 4 3 7 10 7 6 7 8 9 11 12 13 13 10 5 8 12 17 18 19 19 17 18 21 19 15 13 11 9 6 7 4 4 7 6 4 4 4 3 3 2 2 4 2 4 5 4 5 3 3 4 7
15 15 15 15 15 15 15 14 13 12 11 9 8 8 8 8 9 9 7 6 5 5 6 7 8 8 7 7 7 7 6 5 4 4 4 2 2 3 6 9 7 7 7 8 11 14 13 12 14 14 11 9 10 14 16 17 17 16 18 19 10 7 10 8 6 5 5 7 3 7 6 4 5 4 2 2 3 2 2 2 2 4 4 4 4 5 7 8
15 15 15 14 15 15 15 14 13 11 10 9 8 7 7 7 8 8 8 6 5 4 5 6 7 6 6 6 6 7 7 4 3 6 6 3 3 4 5 6 6 6 7 8 11 15 14 12 13 14 15 13 10 11 13 13 12 12 15 14 7 7 9 3 3 7 6 10 7 4 4 1 3 3 8 7 9 3 2 4 5 8 6 6 7 7 7 8
14 14 14 14 14 14 13 13 13 11 10 9 7 6 6 6 7 7 7 6 5 4 4 5 6 6 5 6 7 8 7 5 5 6 6 5 3 5 5 5 5 6 8 9 10 12 12 11 10 11 12 13 11 11 10 9 7 8 9 10 9 8 9 3 3 9 10 13 12 8 9 9 4 4 9 9 9 4 3 5 5 8 8 9 9 8 8 10
13 13 14 14 13 13 12 12 12 11 10 9 7 6 5 5 6 7 7 6 4 4 4 4 5 5 5 7 8 8 7 5 6 6 6 6 5 5 4 4 5 7 9 9 8 10 10 10 9 8 8 9 10 9 6 4 8 12 10 8 10 12 11 8 9 13 16 17 16 15 14 11 6 5 8 8 5 4 4 4 4 5 6 8 10 10 10 11
13 13 13 13 12 12 11 11 11 10 10 9 7 5 5 4 5 6 6 5 4 4 3 3 4 5 5 7 8 7 7 5 5 5 5 5 4 4 3 4 6 9 12 13 11 12 13 12 9 6 6 5 5 6 3 7 11 15 15 9 9 12 11 11 13 13 15 16 15 14 12 8 6 6 8 8 4 4 3 4 5 6 7 8 9 10 10 10
13 12 12 12 12 11 11 10 10 10 9 8 6 4 4 4 4 5 5 5 4 4 2 2 3 4 4 7 9 6 6 5 4 3 2 3 3 4 3 5 9 12 15 15 14 14 13 12 8 3 3 5 6 8 9 11 13 15 18 13 9 9 11 13 14 9 10 11 9 11 12 9 10 7 6 10 9 7 7 7 8 9 9 9 9 9 9 9
12 11 12 12 11 10 10 9 9 9 9 8 6 4 3 3 4 4 5 5 4 4 2 1 2 3 4 7 7 3 3 4 3 2 2 3 4 4 4 8 12 16 17 15 13 11 11 9 4 2 6 9 10 12 13 15 17 16 17 17 12 11 14 16 15 11 10 11 9 10 10 6 12 10 7 12 14 12 10 9 11 11 9 8 10 9 7 9
11 11 12 11 11 10 9 9 8 8 8 7 5 4 2 2 3 4 4 5 4 4 2 1 1 3 5 6 3 1 1 2 2 5 4 2 3 5 8 11 15 17 16 14 13 10 9 6 6 6 7 11 12 14 13 13 15 12 10 16 17 17 19 17 16 15 13 13 12 11 9 5 11 12 10 13 15 13 12 12 12 11 9 9 9 8 6 8
10 11 12 11 11 9 8 8 7 7 7 6 5 4 2 2 2 3 4 4 4 4 1 1 4 7 7 4 3 2 0 2 8 11 7 4 4 7 12 15 17 17 17 17 15 11 6 5 10 10 11 12 14 14 11 8 11 8 6 13 17 18 19 17 15 17 17 16 12 10 9 8 11 12 10 14 16 17 18 16 15 13 12 12 10 9 8 8
9 11 12 11 11 10 9 8 7 6 6 5 4 3 3 2 2 3 4 4 4 3 1 2 7 9 7 4 2 1 1 5 10 13 10 4 4 8 13 18 19 17 20 20 15 9 4 7 12 13 14 14 13 13 9 5 5 7 8 11 13 16 19 19 17 17 17 18 13 9 11 10 10 9 10 16 17 20 23 20 18 15 13 15 12 9 8 8
8 10 11 11 12 12 12 10 8 6 5 4 4 4 3 2 2 2 3 4 3 3 1 3 8 10 7 5 4 4 3 6 10 12 10 3 5 9 13 16 16 16 20 20 13 8 7 9 12 14 15 14 13 11 9 6 2 5 8 8 10 15 18 15 16 17 16 17 15 13 14 11 8 7 11 17 19 22 25 23 20 15 13 15 13 10 9 8
7 9 10 11 12 13 14 13 10 7 5 5 5 5 4 3 2 2 3 3 3 2 2 4 9 11 4 2 3 5 4 6 8 9 8 5 8 12 14 11 7 10 14 14 11 9 11 12 11 13 17 15 12 10 9 8 5 5 8 8 10 14 15 10 11 15 15 14 13 15 17 9 6 8 11 18 21 24 27 26 22 16 15 15 14 12 12 11
6 7 9 10 11 12 13 13 12 9 7 6 6 6 6 5 3 2 3 5 4 4 4 6 9 10 3 4 3 5 6 9 10 8 8 6 9 11 11 10 8 3 4 8 9 9 10 11 9 10 17 16 11 10 8 7 6 7 9 11 12 15 17 12 7 10 11 13 15 19 19 12 8 8 10 18 24 26 29 28 22 18 17 17 15 14 13 12
5 5 7 9 10 11 12 12 11 10 8 7 7 8 8 8 5 5 7 8 8 8 7 9 10 8 8 9 6 6 7 10 11 9 8 5 8 7 5 5 8 7 4 1 2 3 4 5 5 5 12 15 11 10 6 7 9 9 10 13 14 15 19 19 15 12 13 16 20 24 24 20 14 9 8 16 25 29 32 30 24 20 19 18 16 15 14 14
5 4 6 7 9 10 11 12 11 10 8 8 7 6 7 8 7 7 11 12 12 12 11 11 11 8 9 12 9 7 5 6 8 8 7 4 4 4 4 2 2 2 2 3 2 1 2 2 3 3 11 14 12 11 7 7 9 8 9 12 14 16 19 24 25 21 19 21 22 26 27 25 20 13 9 13 21 28 32 30 26 23 20 19 18 18 16 16
6 4 5 6 8 9 11 11 10 9 9 8 6 4 5 6 6 9 12 11 10 10 10 10 10 8 9 12 11 6 4 5 4 6 3 1 2 2 1 2 3 3 4 4 2 1 4 5 5 4 12 15 14 15 10 6 7 8 10 13 15 18 20 20 21 20 21 24 23 27 28 25 22 16 12 17 21 27 31 28 26 23 20 20 20 19 19 18
7 5 5 5 6 8 10 10 9 8 8 7 5 3 3 4 6 8 11 9 9 11 10 9 7 7 9 10 9 6 5 6 2 4 1 3 2 2 2 4 4 4 4 3 3 5 7 8 8 5 10 15 13 14 11 8 10 12 14 18 18 20 21 16 15 19 20 23 24 27 25 22 21 18 15 23 24 24 27 27 26 24 22 23 22 21 22 20
9 6 5 5 6 7 8 8 7 7 6 5 4 5 6 7 8 7 8 7 8 9 8 8 6 6 7 7 8 4 3 3 2 2 3 3 1 0 2 3 5 3 1 3 5 6 10 12 10 5 5 10 10 9 10 12 15 18 20 23 22 23 24 17 15 18 17 17 25 25 22 20 18 17 17 22 23 24 26 27 28 27 26 25 23 23 23 20
10 8 6 5 5 6 6 6 5 6 6 7 7 8 9 10 9 8 7 7 6 7 8 11 10 7 6 6 5 1 3 1 2 2 3 3 2 3 3 3 5 7 6 5 8 9 12 12 8 7 5 8 10 9 12 17 20 19 19 21 20 22 25 23 19 12 12 11 23 23 23 21 16 16 18 19 21 24 26 26 26 27 28 26 24 24 23 21
11 10 8 6 6 5 5 5 6 8 8 8 9 10 10 9 8 7 8 10 11 10 10 10 9 6 3 4 4 5 6 4 3 2 2 1 2 3 5 7 9 11 9 10 13 14 15 12 12 12 11 12 14 14 15 18 16 11 9 12 13 15 19 23 22 15 11 12 14 17 22 24 22 20 19 20 23 24 25 26 25 24 25 25 25 23 22 20
11 10 9 7 7 5 5 5 7 9 8 9 11 12 12 11 10 10 11 12 13 12 9 6 5 4 3 2 3 3 3 3 2 1 1 1 4 5 7 9 10 11 10 12 15 16 17 16 16 16 14 15 17 17 13 10 8 6 7 10 12 13 15 17 17 17 18 16 12 13 15 21 25 25 22 22 23 23 25 28 29 27 25 26 25 23 22 20
11 11 9 8 7 6 5 6 8 9 9 10 12 14 13 13 14 14 13 13 12 10 8 6 5 3 1 4 3 2 5 4 2 2 2 3 4 7 8 8 11 12 10 13 12 12 15 13 12 12 10 11 12 11 6 5 9 11 11 12 11 12 13 13 14 15 17 17 12 9 9 12 18 22 22 20 20 20 25 31 31 28 26 28 28 25 23 21
11 11 10 9 7 7 6 8 8 9 10 11 12 14 14 15 16 15 14 14 12 11 11 10 8 5 2 3 3 6 6 4 3 3 2 5 5 7 9 8 11 12 10 15 11 8 10 10 10 11 9 11 9 8 5 6 10 11 10 10 10 12 14 15 17 14 13 14 11 7 6 7 10 15 14 13 15 16 21 30 33 31 30 30 30 28 25 23
11 11 10 10 9 8 8 9 10 11 10 10 12 14 15 15 13 12 11 9 9 10 10 9 8 8 7 6 7 5 7 5 1 1 2 6 7 7 10 9 10 10 9 14 12 7 8 10 9 10 10 13 12 9 9 8 11 12 12 13 12 11 12 14 16 15 12 13 12 8 6 6 7 10 10 8 11 14 18 28 35 35 32 30 31 31 27 25
11 11 11 11 11 11 11 10 11 12 11 11 12 12 13 11 8 7 6 4 5 7 6 5 6 7 6 7 6 3 5 6 2 3 2 6 9 9 9 9 10 11 10 13 14 12 12 12 11 13 14 14 13 12 14 13 14 15 16 17 16 13 12 12 14 14 13 14 13 10 7 4 3 3 4 5 5 8 11 18 27 31 29 30 33 32 29 27
11 11 11 11 12 12 12 11 11 12 12 12 12 10 9 8 7 8 7 4 6 8 6 6 5 4 4 5 4 1 4 4 3 1 3 6 8 8 8 10 12 13 12 12 14 15 15 14 14 17 17 14 13 14 14 13 12 13 16 19 18 16 15 15 16 17 16 12 9 9 9 5 3 3 5 7 7 5 6 10 17 23 26 27 29 30 30 28
11 11 11 12 12 12 12 12 11 10 10 10 12 11 9 7 6 6 5 4 9 11 8 7 5 2 2 2 3 3 2 1 1 2 3 4 6 7 7 9 11 12 13 14 14 15 17 16 16 16 17 17 18 16 13 11 12 13 15 17 18 19 19 18 17 17 14 8 4 5 9 6 2 2 5 6 6 6 7 11 15 18 20 19 21 26 29 26
10 10 11 12 13 13 13 12 10 9 8 8 11 12 11 12 10 7 3 3 8 12 11 11 9 5 2 1 3 5 2 1 5 8 7 4 4 5 5 7 10 11 13 15 16 16 16 15 15 14 14 17 18 17 14 13 12 12 13 14 16 16 17 17 14 10 6 4 3 6 12 11 5 4 5 7 9 12 13 12 13 15 16 15 15 20 24 23
10 10 10 12 14 14 14 12 9 10 9 8 9 9 11 15 14 10 5 3 5 11 12 10 10 10 4 4 4 5 4 5 7 9 10 7 6 5 7 10 12 11 11 14 18 18 19 18 16 13 11 12 14 14 15 13 7 8 13 14 10 6 6 7 7 4 4 5 5 8 11 10 7 6 8 11 17 19 15 12 12 13 14 12 13 17 21 24
10 9 10 12 14 14 13 11 10 10 8 7 7 8 12 13 10 10 8 6 5 8 11 8 8 12 8 1 3 5 6 8 8 8 10 8 8 8 9 11 12 9 10 15 17 18 20 18 11 8 6 7 11 15 15 12 10 12 16 16 8 1 2 2 2 2 5 7 7 8 9 7 7 10 11 12 18 18 10 10 13 10 11 11 10 13 19 22
9 9 10 12 13 13 12 11 10 9 8 8 7 8 14 12 7 7 8 7 6 4 6 6 5 8 10 9 8 6 5 7 8 9 10 8 8 10 10 10 9 8 9 12 11 11 14 12 7 7 8 10 13 13 13 15 17 15 14 14 10 6 3 4 3 2 4 7 8 9 6 3 2 3 4 6 11 12 8 11 13 6 6 11 11 11 13 16
10 9 11 12 13 12 11 10 9 8 9 9 8 13 16 11 6 7 6 6 6 6 5 3 4 6 7 9 10 8 8 8 9 10 9 9 10 10 8 8 7 7 7 8 8 9 11 12 12 12 12 15 17 14 12 15 15 9 7 8 7 6 7 7 4 5 5 5 6 8 8 9 9 10 12 13 13 11 9 14 17 12 6 9 13 13 11 12
10 10 10 11 12 12 11 10 8 8 10 10 12 19 19 12 9 7 5 6 7 6 4 2 5 7 6 5 6 7 8 9 9 8 8 8 8 7 6 6 8 9 8 7 8 8 9 15 17 15 14 13 14 15 16 16 14 12 10 11 9 6 9 9 6 6 5 4 3 5 11 17 19 19 20 19 18 17 14 15 17 15 10 10 13 14 11 12
11 11 11 11 11 12 12 11 9 9 11 12 16 20 17 13 12 8 3 5 6 4 4 4 6 8 7 3 3 6 7 7 8 8 9 8 6 6 8 7 8 11 12 10 9 8 11 20 23 20 16 13 11 13 14 12 14 14 11 13 13 8 8 7 4 3 2 2 4 5 10 15 15 13 15 14 13 16 20 19 13 7 6 9 10 9 10 12
12 13 13 12 11 11 11 10 9 9 10 11 16 17 15 14 14 11 5 3 3 4 4 7 7 6 7 5 3 4 6 7 10 10 10 8 7 9 10 8 9 11 12 13 13 12 14 20 23 19 17 17 15 14 12 8 9 9 8 10 11 6 7 6 3 3 2 2 3 4 8 11 11 12 14 13 9 8 12 16 14 7 1 3 3 3 7 10
11 14 13 11 11 10 8 7 8 8 7 9 13 13 13 13 12 13 9 2 2 4 6 7 6 5 7 7 4 4 6 8 10 12 10 9 10 9 9 10 12 13 14 15 16 16 15 14 16 19 21 21 19 17 17 14 12 11 11 12 10 6 7 7 6 5 3 2 2 3 4 3 4 9 11 9 8 8 10 12 18 15 7 4 1 2 2 5
11 12 11 10 10 10 9 7 6 5 7 10 11 10 10 10 9 10 10 3 1 3 6 5 5 5 6 6 4 4 5 4 8 12 11 11 10 8 9 12 14 14 15 17 16 16 13 9 15 23 23 21 19 20 22 20 15 14 12 12 11 9 7 9 10 8 5 2 1 2 3 1 2 7 9 7 5 6 11 12 15 19 17 13 8 4 3 4
11 11 10 9 9 9 7 5 4 3 6 9 8 6 5 5 5 6 9 7 2 2 4 3 5 8 7 5 5 5 5 3 7 10 10 12 11 8 9 11 12 13 14 15 14 14 13 11 17 23 23 24 23 20 17 13 11 11 12 14 16 15 9 5 6 7 5 2 1 2 4 7 9 8 10 13 9 7 10 8 9 15 18 19 18 15 11 7
11 10 9 7 7 7 4 2 3 3 4 7 8 6 3 1 2 5 7 8 4 3 2 1 2 7 8 6 7 7 5 3 8 9 9 10 10 6 6 6 8 11 12 11 11 13 15 13 15 19 23 25 20 12 9 7 9 11 11 13 17 17 12 4 3 7 9 7 7 5 4 10 15 13 11 13 11 9 9 9 9 11 12 12 14 16 17 16
11 10 9 7 6 5 2 2 5 4 6 8 9 7 5 2 3 7 9 9 7 7 7 3 2 5 8 7 8 9 7 3 4 6 6 6 5 3 3 6 10 12 12 9 10 15 14 11 14 20 24 22 14 5 6 5 11 15 15 17 19 18 16 10 8 10 11 9 8 5 3 7 12 14 12 11 10 7 7 12 14 13 13 11 8 8 11 16
8 9 8 6 4 2 2 7 8 5 6 8 7 7 7 6 7 8 9 10 11 11 13 8 4 6 8 9 10 10 9 6 4 6 7 5 5 7 8 10 13 14 14 11 12 15 12 10 15 17 16 16 12 6 8 13 18 19 18 20 20 20 18 13 11 11 9 8 7 4 4 9 12 15 15 14 14 12 10 13 14 14 15 14 10 8 8 11
5 6 5 4 4 4 5 7 6 5 6 7 8 9 7 8 11 12 10 9 9 11 14 11 8 10 11 12 11 9 6 5 5 9 11 11 12 12 12 12 15 16 15 11 10 12 12 14 16 11 6 8 7 7 15 24 25 20 19 20 20 20 18 14 12 9 6 7 9 9 11 18 19 18 18 18 17 18 17 16 16 15 15 14 12 12 11 11
4 5 6 6 7 7 6 4 4 5 6 7 8 9 8 7 7 8 8 7 8 11 13 13 12 13 13 13 14 11 4 5 7 11 14 16 17 16 17 17 17 15 12 10 10 12 14 16 16 11 8 8 12 15 18 21 22 21 19 19 20 20 19 16 12 10 10 11 14 16 20 24 21 16 15 16 15 17 20 21 21 21 18 17 17 15 13 12
4 6 8 6 6 6 6 4 3 5 7 8 7 7 10 9 5 4 6 7 11 12 14 15 15 14 14 15 17 16 8 5 7 11 14 16 17 16 15 15 13 10 7 9 11 12 15 16 15 15 15 15 18 18 16 15 19 20 20 20 21 19 17 17 16 14 13 12 14 17 18 19 19 19 18 18 18 19 19 20 22 21 20 21 22 19 17 17
4 5 7 6 5 6 7 6 5 5 8 10 8 7 10 11 8 7 8 9 12 13 12 13 16 16 14 16 17 14 10 9 10 13 16 18 18 14 8 4 2 3 4 7 10 13 15 16 17 19 20 20 18 16 14 15 16 17 19 21 20 16 14 15 17 16 14 12 13 15 17 17 19 20 19 19 20 19 18 17 17 17 17 22 24 21 19 20
5 5 6 6 5 5 6 6 6 6 9 10 9 9 11 12 12 11 11 11 11 12 12 13 17 17 15 16 16 11 9 13 15 17 19 20 17 14 9 8 7 6 5 6 10 13 15 16 17 21 24 22 18 15 15 16 16 16 16 16 16 12 11 13 13 11 10 11 12 12 13 13 14 15 16 17 16 16 16 15 14 13 13 17 22 22 19 20
6 5 5 5 4 3 4 5 5 6 7 8 8 9 12 14 14 13 13 13 11 12 14 15 17 18 16 17 17 12 10 14 17 19 20 17 14 12 8 8 10 10 9 9 11 14 15 17 18 21 25 23 18 16 17 17 15 11 9 11 13 11 12 14 11 9 12 14 12 10 10 11 11 13 15 15 15 15 15 14 14 13 13 13 17 20 21 22
4 4 4 4 3 4 4 3 4 6 6 6 7 10 13 15 14 14 14 14 12 13 16 18 20 20 19 18 18 16 15 17 16 15 14 12 12 10 10 13 15 16 15 12 12 13 16 20 22 21 22 22 18 17 19 16 7 4 10 15 15 13 16 17 14 14 17 16 13 10 10 11 13 17 18 16 15 15 14 14 13 14 15 15 15 17 19 21
2 2 3 2 2 3 3 3 4 6 5 6 9 11 13 14 14 13 12 11 11 12 15 16 18 18 16 15 16 16 18 17 13 10 9 9 11 11 12 15 14 13 14 15 15 14 16 20 20 15 16 19 17 17 18 13 6 5 13 17 16 17 18 16 15 17 17 14 12 11 10 11 13 17 18 16 15 13 13 13 11 11 13 15 15 15 15 16
Wind_Direction
316 316 316 316 315 316 314 313 314 315 316 317 319 320 322 322 317 308 296 284 277 273 269 268 266 262 259 256 255 254 252 255 259 260 256 256 254 249 253 243 221 206 202 208 197 172 163 174 172 178 190 191 194 190 184 182 170 179 205 220 228 227 220 210 210 219 340 329 324 352 97 116 120 122 137 176 188 189 176 200 225 220 220 230 235 231 240 279
313 313 314 314 315 315 315 314 312 314 317 317 318 320 323 326 325 318 308 293 283 278 274 269 265 262 260 257 255 253 250 248 248 251 248 244 250 257 262 249 226 195 191 192 172 153 156 152 142 156 190 197 197 194 191 182 175 189 202 215 224 218 202 201 229 258 324 321 268 215 113 105 106 111 223 225 185 360 347 237 220 213 227 247 262 269 275 310
310 310 311 313 314 315 316 316 313 313 316 317 319 321 323 327 329 325 318 307 294 285 279 272 266 262 259 257 250 246 241 235 231 231 232 231 238 253 249 239 220 193 182 180 163 154 163 158 138 125 157 198 196 194 193 183 184 196 203 217 220 210 210 223 244 275 313 303 151 141 120 93 92 105 268 239 172 9 23 48 196 220 261 273 274 283 296 315
310 310 311 313 314 315 316 318 317 314 314 317 318 320 322 327 331 329 325 320 310 296 284 275 270 263 258 252 243 234 221 211 203 193 181 185 210 212 226 220 206 187 170 168 165 162 167 164 143 131 142 161 174 186 188 184 192 207 215 227 227 232 243 220 235 297 292 258 191 131 131 128 115 102 183 208 284 266 16 2 233 277 293 288 290 301 307 315
310 311 313 315 316 317 317 318 320 318 314 315 316 318 319 324 331 330 329 327 324 312 288 279 273 263 254 240 228 216 197 172 169 185 172 151 172 187 198 195 184 174 160 158 166 173 178 173 151 140 145 147 161 177 176 179 196 218 228 244 263 276 270 198 223 286 274 268 271 183 170 175 135 132 167 210 278 253 250 299 299 306 314 324 324 320 315 320
309 310 312 315 317 319 320 318 321 324 319 317 317 316 317 322 329 330 332 331 329 319 297 288 276 262 245 221 214 204 179 148 153 175 180 169 160 171 174 164 160 154 151 157 168 181 189 189 167 146 146 151 163 159 150 167 203 238 249 261 273 285 276 252 299 286 268 273 280 264 281 289 245 184 186 221 272 251 235 272 284 300 312 323 327 329 326 331
311 310 311 313 317 321 323 321 322 328 327 324 321 315 316 319 325 330 334 335 331 317 306 293 275 259 233 209 206 195 171 151 159 176 187 181 164 156 146 134 152 151 144 148 163 177 179 179 167 149 153 160 170 159 141 192 237 256 273 282 279 287 282 276 300 285 261 266 282 286 295 285 227 187 210 225 263 253 223 235 258 292 310 316 316 317 319 326
317 315 314 314 317 321 326 325 324 330 332 331 327 316 312 315 321 328 333 339 333 316 310 299 277 253 228 202 195 184 172 167 164 178 177 162 145 121 107 124 151 150 137 129 136 155 160 157 152 155 177 181 198 203 225 273 268 260 266 285 288 281 278 283 294 279 255 268 284 285 295 274 207 174 217 231 258 266 235 238 266 283 292 298 300 301 308 318
328 326 323 320 319 321 325 326 325 329 333 335 333 320 311 312 316 323 332 341 335 318 306 296 269 247 223 190 188 182 176 186 182 189 159 96 98 96 106 136 143 142 137 135 138 145 150 149 149 168 240 261 264 256 261 276 275 265 262 269 287 278 266 276 287 276 260 284 298 290 297 264 208 182 224 246 250 251 249 251 263 274 284 293 288 282 293 311
345 344 340 333 327 322 323 327 325 326 333 338 337 329 314 314 315 321 332 339 337 323 309 278 254 238 194 177 189 187 175 215 235 277 323 47 93 104 122 140 138 136 139 147 148 148 158 163 178 248 271 268 261 256 258 265 269 273 263 252 262 268 257 263 268 265 273 294 300 291 298 250 203 192 208 239 243 244 242 241 255 266 276 281 272 268 283 302
2 0 356 352 343 333 327 326 323 323 334 342 344 343 331 326 319 321 334 342 339 324 312 214 201 165 157 166 173 137 209 255 15 16 358 50 101 122 126 132 132 133 140 151 157 165 177 198 259 261 258 259 249 249 250 255 262 271 257 237 243 254 253 256 256 257 267 279 288 288 285 242 203 196 199 232 245 249 239 235 248 256 264 269 263 263 274 290
14 9 7 5 359 351 339 329 321 323 337 346 352 359 355 347 331 326 338 347 345 330 321 157 154 134 125 137 138 125 198 74 58 38 34 80 124 140 135 137 140 146 154 158 165 172 175 249 270 251 246 248 242 247 242 238 252 250 242 236 236 245 248 247 245 249 253 258 276 283 267 244 217 203 209 238 248 249 241 237 243 246 260 268 258 254 264 278
21 15 16 15 8 3 353 341 332 333 344 352 360 16 17 9 353 335 339 348 352 345 332 159 157 140 115 109 101 2 12 75 65 43 34 66 135 145 145 151 156 164 167 166 171 170 170 254 258 242 239 242 241 246 225 204 256 243 238 245 241 245 245 239 239 245 248 247 250 256 258 252 232 209 217 239 245 242 236 234 239 245 259 260 249 246 258 271
25 20 24 23 17 16 10 4 357 356 358 2 17 31 31 24 5 334 339 359 9 7 43 157 158 149 123 102 59 7 12 52 63 56 42 68 128 136 153 162 169 177 176 174 178 183 196 232 249 239 230 237 241 242 229 216 240 234 239 248 245 251 247 237 240 247 251 244 235 243 257 257 238 219 222 238 248 244 235 231 233 243 256 249 239 241 250 264
29 25 29 29 24 22 20 19 17 18 19 25 40 42 38 30 8 338 350 25 40 33 105 142 157 159 140 82 55 17 18 35 49 60 59 119 129 123 135 137 159 194 196 194 198 209 217 226 250 246 226 230 236 228 233 234 219 222 244 246 239 250 252 241 234 241 248 243 231 240 246 236 210 218 220 232 247 246 232 227 230 239 246 238 235 240 245 260
33 31 30 31 27 22 22 23 24 30 37 46 56 54 48 40 31 41 51 66 69 62 101 121 152 162 98 46 51 18 35 37 34 51 59 117 130 106 102 85 62 72 205 222 231 239 243 241 270 262 222 220 230 225 236 241 222 215 237 257 256 258 266 268 243 232 250 249 238 236 234 229 221 228 230 230 239 239 227 225 232 240 238 229 231 237 244 267
36 36 31 31 28 25 24 23 28 36 45 61 69 67 59 54 62 86 87 85 83 79 96 113 134 136 63 53 55 29 47 44 33 44 50 97 129 109 100 74 46 48 71 89 232 245 268 257 299 291 216 211 220 224 242 242 225 222 247 277 279 275 279 283 283 280 284 271 248 236 231 234 238 243 241 225 224 226 226 228 234 239 233 222 224 235 248 273
36 41 34 32 29 29 27 28 36 41 51 67 76 77 69 66 83 112 112 102 94 89 95 109 118 110 61 51 52 39 50 64 43 36 42 73 107 120 153 147 23 358 349 10 58 92 350 293 326 305 208 204 208 212 239 246 232 246 275 293 294 291 289 287 292 299 301 291 260 236 231 234 237 247 243 220 219 224 226 228 232 235 231 224 230 242 253 270
37 46 43 37 34 35 33 35 43 46 56 74 84 83 67 70 96 130 132 118 106 105 103 102 98 93 75 55 47 38 58 103 65 21 31 329 360 93 176 271 248 256 283 305 333 322 318 298 306 273 202 203 207 210 231 260 253 269 287 290 292 298 300 299 301 298 297 294 262 228 228 233 233 240 220 199 210 219 219 222 228 232 233 233 237 245 256 265
41 50 53 48 42 41 38 39 45 47 58 82 94 71 43 66 96 131 142 127 115 116 108 107 98 94 91 57 32 33 71 103 53 336 281 279 332 97 326 286 237 236 240 264 320 314 302 286 286 277 204 203 207 214 242 276 268 272 283 281 282 289 301 320 310 292 296 288 254 222 221 226 224 232 217 200 207 217 222 228 232 235 240 242 242 247 256 257
44 54 61 61 55 51 45 40 44 50 54 61 46 28 37 57 73 102 132 130 122 115 98 101 106 107 103 62 39 63 93 97 35 322 218 229 275 335 305 250 230 269 252 246 284 288 290 288 292 302 215 206 214 235 264 278 274 278 282 277 277 278 284 303 302 301 317 276 235 215 215 219 217 226 222 212 219 227 232 238 240 240 239 240 243 247 249 247
47 56 66 73 68 60 49 34 30 37 40 44 39 34 43 53 58 70 98 106 106 111 93 81 79 90 92 44 23 190 247 263 108 91 149 183 239 272 285 256 261 298 317 289 273 271 276 290 325 337 295 258 253 262 277 281 280 281 279 271 272 275 275 286 287 297 333 264 220 209 215 222 224 220 217 224 238 240 235 239 247 245 236 235 241 246 247 247
50 58 68 79 79 67 47 24 15 20 31 49 57 59 62 67 66 65 87 91 84 94 92 73 63 60 54 5 317 256 263 251 169 115 100 161 251 272 286 287 287 290 292 290 286 278 271 287 327 323 303 284 266 271 281 281 278 273 271 266 274 283 278 286 286 270 296 288 241 233 230 234 239 225 221 239 250 252 247 244 248 249 244 244 248 253 256 255
51 59 68 78 81 68 45 29 24 27 42 59 63 69 74 80 87 90 97 91 79 86 89 79 78 64 52 12 320 276 238 207 179 160 144 311 291 281 289 283 282 281 284 303 298 281 279 296 316 309 297 288 272 272 281 275 270 268 290 292 289 292 278 287 293 267 275 294 282 269 254 251 249 231 227 235 240 249 246 236 234 236 244 246 245 251 255 256
50 58 65 75 79 67 47 33 32 43 58 67 68 73 80 89 99 101 100 92 82 83 83 78 94 105 50 348 348 135 140 126 44 47 97 4 305 269 283 281 277 279 296 324 314 282 284 298 320 319 310 304 276 259 280 302 296 294 300 295 280 279 273 281 290 274 282 295 287 276 264 263 252 232 229 231 233 238 230 228 234 236 242 242 240 242 242 244
50 56 62 70 75 70 55 42 50 63 64 67 72 78 92 105 108 105 100 93 80 73 76 69 67 84 60 22 96 121 98 74 23 22 47 4 325 267 271 283 288 283 298 324 319 287 283 278 308 333 334 326 298 254 279 321 320 315 309 300 282 279 280 281 285 287 302 308 298 289 277 278 263 246 248 247 243 239 226 230 238 239 240 240 241 243 240 240
52 56 61 69 74 74 67 58 67 73 67 69 80 93 110 114 113 113 106 91 67 64 71 62 54 67 83 105 121 99 48 44 311 243 43 359 339 290 274 291 303 288 298 320 312 298 304 287 297 332 341 334 324 301 299 315 321 313 308 314 312 305 295 285 287 290 297 303 299 297 302 302 282 265 266 257 245 245 239 233 232 233 237 241 244 244 241 240
54 59 65 73 78 77 74 70 73 76 76 78 85 104 120 116 113 116 111 82 43 44 50 63 74 73 90 126 122 68 28 21 316 241 277 322 325 310 294 309 312 296 302 316 307 299 311 309 305 319 330 334 334 323 310 310 309 295 292 303 308 309 305 291 291 295 299 305 300 302 326 324 282 268 257 257 263 264 264 250 238 235 238 242 245 243 239 239
55 62 73 83 87 85 83 80 75 75 80 84 86 100 119 119 109 95 88 69 33 28 39 71 90 80 91 129 127 352 332 358 17 8 286 289 309 314 308 317 316 305 300 301 302 299 299 302 306 313 317 315 317 322 318 317 313 294 288 297 297 294 294 293 294 299 304 306 291 296 327 336 271 259 252 268 289 294 314 304 271 250 239 239 242 239 235 234
57 65 80 93 96 95 91 85 79 74 81 90 85 85 99 113 108 82 72 60 35 31 41 47 37 24 52 131 189 234 283 56 181 293 298 285 306 306 299 311 310 304 298 293 292 291 286 287 293 303 311 308 304 306 311 316 317 307 297 295 293 285 283 288 294 300 301 294 272 294 311 321 309 222 225 264 298 297 305 320 306 278 253 242 247 242 233 232
59 70 87 98 99 99 95 90 87 81 84 96 92 89 91 88 83 73 77 83 47 34 38 39 32 18 312 265 190 203 220 317 257 264 283 285 286 302 319 330 323 308 301 298 293 287 282 281 289 303 313 309 298 289 290 298 305 314 317 307 299 292 285 288 298 306 284 257 312 324 302 293 273 199 210 254 285 289 291 305 316 304 279 255 247 240 231 233
60 72 90 101 103 101 97 93 92 83 81 91 97 100 93 80 69 59 60 83 48 23 22 26 27 23 347 252 242 235 257 315 296 277 289 283 260 300 339 339 339 336 321 315 310 301 292 286 293 306 311 306 304 304 299 295 302 327 336 331 317 320 318 301 308 312 260 264 306 315 304 291 272 273 274 270 276 282 290 294 299 315 306 268 240 234 232 234
65 76 94 103 104 102 97 94 89 85 85 85 87 91 88 82 65 54 60 64 44 13 14 22 25 25 24 335 288 287 285 305 311 304 308 303 280 295 319 319 322 331 330 325 320 314 306 300 296 295 308 320 329 339 330 316 326 330 331 332 317 332 35 292 283 300 282 284 283 289 300 293 279 287 287 277 274 277 283 273 267 290 309 292 264 241 234 234
77 86 99 104 104 101 97 93 87 84 83 85 88 81 77 77 68 64 66 57 58 44 28 38 40 27 33 48 42 23 353 329 337 345 339 339 326 315 320 321 315 310 321 329 328 324 314 308 304 290 306 323 322 338 343 326 321 309 308 319 302 274 270 255 225 204 254 271 275 285 294 279 256 262 265 284 281 272 256 239 233 231 283 290 286 261 237 230
84 93 106 111 106 100 96 92 87 78 73 77 77 69 67 65 63 66 62 52 61 66 54 65 66 48 47 45 34 27 17 360 1 1 350 352 351 341 333 332 335 325 329 338 333 322 299 286 294 294 297 309 305 303 313 321 319 291 284 321 318 305 303 289 257 238 259 282 281 273 261 259 268 266 271 284 283 273 252 236 231 223 234 271 278 272 250 227
92 105 113 112 104 97 92 87 81 69 64 60 55 59 62 62 59 59 58 51 44 37 40 102 77 49 52 51 32 24 11 1 2 347 340 351 345 345 346 333 335 327 323 339 339 331 300 286 299 307 307 313 309 296 296 307 305 287 298 318 318 324 316 303 289 274 282 298 276 256 264 276 282 282 284 285 276 263 245 235 240 242 248 266 271 265 244 224
97 105 107 108 106 99 89 79 75 74 69 57 57 63 64 61 57 51 55 56 40 20 21 63 58 28 22 30 33 33 19 22 30 353 341 354 335 337 349 336 331 321 313 320 326 327 310 298 303 311 313 317 322 311 304 310 305 292 293 303 298 293 299 302 306 309 308 282 268 254 266 279 283 283 290 295 287 265 247 239 239 246 254 250 251 247 227 220
102 108 112 117 112 96 80 71 76 86 83 68 67 69 62 55 47 34 36 87 70 45 39 46 38 8 2 344 325 17 5 12 31 12 352 352 339 340 346 347 350 339 326 322 318 320 316 306 304 309 313 317 323 321 311 313 322 307 283 291 299 294 292 300 303 304 302 269 284 271 261 272 279 278 283 287 287 279 266 244 213 179 150 195 205 251 223 214
114 117 119 117 101 77 60 67 79 82 83 77 74 68 57 51 38 21 24 99 119 60 54 45 20 341 346 343 322 348 359 8 22 15 4 354 347 345 349 353 352 344 339 334 329 329 326 309 298 305 315 319 325 336 331 323 326 318 288 282 294 293 281 285 284 286 287 264 279 289 270 268 284 285 287 287 283 282 280 242 202 195 205 193 146 357 249 223
128 125 116 105 91 70 60 79 96 79 71 79 83 79 65 57 44 24 24 38 165 61 51 35 8 344 337 342 330 322 335 3 15 14 12 6 359 351 355 359 351 346 345 339 339 342 337 313 296 307 320 325 330 341 338 331 330 327 321 318 325 328 301 281 276 274 274 264 230 284 285 268 274 273 262 264 284 262 250 243 225 224 228 231 242 269 267 265
140 134 116 103 91 80 84 100 108 90 72 77 83 86 78 60 49 32 23 17 342 20 40 41 21 5 351 355 355 325 302 328 13 17 14 14 17 11 9 6 352 351 349 337 341 349 343 323 306 314 327 330 331 335 329 330 341 341 345 349 349 351 343 298 261 265 268 264 277 299 288 279 283 280 258 252 249 229 229 238 237 230 229 234 243 243 234 234
137 130 114 112 105 103 133 137 70 56 40 47 46 45 66 76 357 349 356 2 350 328 330 218 23 1 354 353 341 323 307 343 17 21 23 31 40 33 16 355 337 348 352 344 347 347 340 326 312 317 325 325 332 333 302 307 343 345 351 350 346 350 349 327 246 274 279 277 282 284 271 273 276 276 266 249 233 218 218 206 192 196 203 219 236 241 239 240
129 126 122 131 127 120 161 115 82 54 22 29 23 26 59 80 345 336 340 0 24 19 358 332 286 333 345 339 323 320 320 323 353 354 3 33 41 10 320 314 328 342 345 343 340 338 338 331 325 329 330 332 348 344 266 291 345 348 355 355 347 345 340 322 293 285 276 267 271 272 250 251 260 265 261 237 215 202 200 200 195 186 183 188 203 228 247 251
115 125 133 137 128 102 75 92 93 73 43 36 28 37 48 43 32 16 358 8 23 16 4 354 307 305 321 315 312 318 316 307 278 283 299 315 315 303 293 306 327 334 334 335 333 335 343 346 344 344 339 343 3 357 312 332 345 346 348 348 343 341 337 322 300 292 278 262 252 231 238 251 260 275 279 266 250 242 224 207 204 200 199 199 197 202 228 247
107 125 125 95 69 48 56 72 68 54 45 30 37 48 28 21 40 34 11 9 13 1 357 353 325 307 304 302 313 321 301 294 295 285 284 283 284 284 281 298 323 326 326 336 339 340 347 350 353 360 345 333 336 324 325 332 335 339 344 343 339 338 335 321 299 279 265 263 247 237 265 281 288 293 294 292 282 264 252 237 228 226 221 213 207 208 216 228
107 112 96 78 69 56 53 54 32 42 47 31 43 51 26 25 54 40 10 357 355 351 346 339 327 317 311 309 324 335 301 244 275 289 292 291 289 287 285 294 310 312 317 338 346 345 345 345 349 352 342 330 325 326 332 331 327 331 338 341 341 338 332 323 302 268 265 276 267 268 282 289 299 305 296 295 292 276 267 257 243 234 228 223 221 217 217 225
82 90 86 89 89 75 73 82 66 60 57 48 55 50 27 32 58 38 2 332 325 331 330 325 324 324 324 325 332 336 324 273 274 292 302 305 305 304 298 295 292 286 302 333 338 339 340 340 343 342 339 337 333 335 342 336 328 328 332 336 340 338 329 318 305 290 291 288 276 284 293 295 302 306 299 297 297 289 280 268 254 245 237 233 233 231 228 234
66 79 77 75 88 96 95 95 83 63 56 51 50 31 13 14 17 3 350 327 312 313 316 319 323 328 333 337 336 331 327 329 323 319 322 323 326 337 354 8 326 288 303 326 333 337 336 334 336 334 331 332 332 336 343 337 328 328 329 331 334 335 332 323 315 309 307 298 290 297 304 307 309 308 305 304 303 301 299 291 280 268 253 245 248 252 244 240
66 70 64 57 71 92 87 75 56 46 48 42 30 15 2 357 356 346 336 329 315 311 319 323 323 328 335 341 341 332 328 334 330 326 328 331 341 357 22 52 40 11 354 338 333 333 328 327 331 328 324 329 336 340 343 337 329 329 331 331 332 335 336 330 321 316 321 322 319 318 319 322 321 315 313 310 307 307 306 301 295 289 274 255 252 255 249 245
73 72 64 55 58 64 62 57 41 31 32 24 10 358 349 345 345 339 332 333 329 325 329 326 323 327 329 334 336 331 325 326 321 321 325 335 359 11 6 8 360 344 350 354 335 326 324 324 327 323 321 330 343 346 344 342 335 335 341 336 333 341 351 348 346 0 7 359 350 346 348 347 336 326 323 319 315 313 306 296 292 292 287 269 256 255 255 254
82 84 77 69 54 34 23 25 29 19 9 2 349 341 339 339 340 338 335 341 343 334 328 324 323 324 321 320 325 329 335 336 330 330 333 347 11 9 343 344 337 318 316 319 312 319 325 325 327 323 319 330 348 348 345 354 8 21 5 355 354 9 15 12 13 16 12 6 6 14 14 360 342 338 337 331 324 320 310 299 290 282 278 274 269 268 266 261
104 95 82 71 35 20 1 348 16 13 353 338 332 334 338 340 342 341 336 339 341 332 328 327 326 327 325 326 334 342 345 346 350 2 13 16 16 12 3 0 352 330 313 298 298 320 334 335 339 332 318 332 354 350 348 11 56 22 3 10 18 21 18 18 15 11 8 8 12 16 8 354 344 345 346 340 332 326 315 302 291 282 273 265 262 264 264 259
Height
3129 3128 3127 3126 3125 3124 3123 3122 3121 3121 3120 3120 3119 3118 3117 3116 3116 3115 3115 3114 3114 3114 3114 3114 3114 3114 3115 3115 3115 3115 3116 3116 3117 3118 3118 3118 3118 3118 3119 3119 3119 3120 3121 3122 3122 3123 3124 3125 3127 3128 3129 3130 3131 3132 3134 3134 3135 3135 3135 3136 3134 3134 3135 3137 3140 3142 3142 3143 3143 3143 3141 3141 3141 3140 3137 3137 3136 3135 3138 3140 3140 3140 3140 3141 3141 3142 3144 3145
3128 3127 3125 3124 3123 3123 3122 3121 3120 3120 3119 3119 3118 3117 3116 3116 3115 3114 3114 3113 3113 3113 3113 3113 3113 3113 3114 3114 3114 3115 3115 3116 3116 3117 3117 3117 3117 3118 3118 3119 3119 3119 3120 3121 3122 3123 3124 3125 3126 3128 3129 3130 3131 3132 3133 3134 3134 3134 3135 3134 3132 3133 3135 3137 3139 3141 3142 3142 3142 3142 3142 3140 3141 3140 3137 3135 3134 3134 3137 3138 3139 3140 3140 3141 3142 3142 3143 3144
3126 3125 3124 3123 3122 3121 3120 3120 3119 3118 3118 3118 3117 3116 3116 3115 3114 3113 3113 3112 3112 3112 3112 3112 3112 3112 3113 3113 3114 3114 3115 3115 3115 3116 3116 3117 3117 3117 3118 3118 3118 3119 3120 3121 3121 3123 3123 3124 3124 3126 3128 3130 3131 3132 3132 3133 3134 3134 3134 3132 3131 3134 3135 3137 3139 3140 3142 3142 3142 3141 3141 3140 3140 3141 3138 3134 3134 3133 3135 3137 3138 3140 3141 3141 3141 3142 3143 3143
3125 3124 3123 3122 3121 3120 3119 3119 3118 3117 3117 3116 3116 3116 3115 3114 3113 3113 3112 3111 3111 3111 3111 3111 3111 3111 3112 3112 3113 3113 3114 3114 3115 3115 3116 3116 3117 3117 3118 3118 3118 3118 3119 3120 3121 3122 3124 3124 3124 3125 3127 3129 3131 3131 3132 3132 3133 3134 3133 3131 3133 3135 3135 3137 3139 3140 3141 3142 3142 3141 3140 3140 3140 3141 3139 3135 3133 3132 3134 3136 3138 3139 3140 3141 3141 3141 3142 3143
3124 3122 3121 3121 3119 3119 3118 3117 3117 3116 3116 3115 3115 3115 3114 3113 3113 3112 3111 3111 3111 3110 3110 3110 3110 3111 3111 3112 3112 3113 3113 3114 3114 3115 3115 3116 3116 3117 3117 3117 3117 3118 3119 3120 3121 3122 3124 3124 3125 3125 3126 3127 3129 3131 3131 3132 3133 3133 3133 3132 3133 3135 3135 3136 3138 3139 3140 3140 3141 3141 3140 3140 3139 3140 3139 3136 3133 3133 3134 3135 3137 3138 3139 3139 3140 3140 3141 3142
3122 3121 3120 3119 3118 3118 3117 3116 3115 3115 3114 3114 3114 3114 3113 3113 3112 3112 3111 3110 3110 3110 3109 3109 3109 3110 3110 3111 3111 3112 3113 3114 3114 3115 3115 3115 3115 3116 3116 3116 3116 3117 3119 3120 3122 3123 3124 3124 3124 3125 3126 3127 3128 3130 3131 3132 3133 3132 3132 3132 3132 3134 3134 3135 3136 3138 3139 3139 3139 3139 3139 3139 3138 3138 3137 3135 3133 3133 3134 3135 3136 3137 3138 3138 3138 3139 3140 3141
3121 3120 3119 3118 3117 3117 3116 3115 3114 3114 3113 3113 3113 3113 3112 3112 3112 3111 3110 3110 3110 3109 3109 3109 3109 3109 3110 3110 3111 3112 3113 3114 3114 3115 3115 3114 3115 3115 3114 3115 3116 3117 3119 3120 3122 3123 3124 3124 3125 3126 3126 3127 3128 3129 3130 3131 3132 3131 3131 3131 3131 3133 3133 3133 3135 3136 3137 3137 3137 3138 3138 3137 3137 3137 3135 3134 3133 3133 3133 3134 3135 3136 3137 3138 3138 3139 3140 3140
3119 3118 3118 3117 3116 3115 3115 3114 3113 3113 3113 3112 3112 3112 3112 3111 3111 3110 3110 3110 3109 3109 3109 3109 3109 3109 3109 3110 3111 3112 3113 3113 3114 3114 3114 3113 3114 3114 3114 3115 3116 3117 3119 3121 3122 3123 3124 3125 3126 3126 3126 3127 3128 3129 3130 3131 3131 3131 3129 3130 3131 3132 3133 3133 3134 3134 3135 3135 3135 3136 3136 3137 3137 3136 3134 3132 3132 3132 3133 3133 3134 3136 3137 3138 3138 3139 3139 3140
3118 3117 3116 3115 3115 3114 3114 3113 3113 3112 3112 3111 3111 3111 3111 3111 3110 3110 3110 3109 3109 3108 3108 3108 3108 3109 3109 3110 3111 3112 3113 3113 3114 3114 3113 3113 3113 3113 3114 3115 3116 3117 3119 3121 3122 3123 3124 3126 3126 3126 3127 3128 3128 3129 3130 3130 3130 3129 3128 3129 3130 3131 3132 3133 3133 3133 3134 3133 3133 3134 3135 3136 3136 3136 3133 3131 3131 3130 3132 3133 3134 3135 3136 3137 3138 3138 3139 3139
3117 3116 3116 3115 3114 3113 3113 3112 3112 3111 3111 3111 3110 3110 3110 3110 3110 3110 3109 3109 3108 3108 3108 3108 3108 3109 3110 3111 3112 3112 3113 3113 3113 3113 3113 3113 3113 3113 3114 3115 3116 3118 3120 3121 3123 3123 3124 3125 3125 3125 3126 3126 3127 3127 3128 3128 3128 3128 3127 3127 3129 3130 3130 3131 3132 3133 3133 3132 3132 3132 3133 3134 3134 3136 3133 3129 3129 3129 3131 3133 3134 3135 3136 3137 3137 3138 3138 3138
3117 3116 3115 3114 3113 3112 3112 3112 3111 3111 3110 3110 3110 3110 3110 3110 3109 3109 3109 3109 3108 3108 3108 3108 3108 3109 3110 3111 3112 3112 3113 3113 3113 3112 3112 3112 3113 3114 3115 3116 3117 3118 3120 3121 3122 3122 3122 3123 3123 3124 3125 3125 3125 3125 3126 3127 3127 3126 3125 3126 3128 3128 3128 3129 3130 3131 3131 3131 3131 3131 3132 3133 3133 3135 3133 3129 3128 3128 3129 3132 3133 3134 3135 3135 3135 3136 3137 3137
3116 3116 3115 3114 3113 3112 3111 3111 3110 3110 3110 3110 3109 3109 3109 3109 3109 3109 3109 3109 3108 3108 3108 3108 3108 3109 3110 3111 3112 3112 3113 3113 3112 3112 3112 3112 3113 3114 3115 3116 3117 3118 3119 3120 3121 3121 3121 3122 3123 3123 3124 3123 3124 3124 3125 3126 3125 3125 3125 3126 3126 3127 3127 3128 3128 3129 3130 3130 3131 3131 3131 3132 3132 3133 3133 3130 3129 3127 3127 3130 3132 3133 3133 3134 3134 3135 3136 3135
3116 3115 3115 3114 3113 3112 3111 3110 3110 3109 3109 3109 3109 3109 3109 3109 3109 3108 3108 3108 3108 3108 3108 3108 3109 3110 3111 3111 3111 3112 3113 3113 3112 3112 3113 3113 3113 3114 3115 3116 3117 3118 3118 3119 3119 3119 3120 3121 3122 3122 3122 3122 3123 3124 3124 3124 3124 3124 3124 3124 3125 3126 3125 3126 3127 3127 3128 3129 3130 3130 3130 3129 3130 3132 3132 3129 3128 3127 3125 3128 3131 3131 3132 3132 3133 3134 3134 3134
3116 3115 3115 3114 3113 3112 3111 3110 3109 3109 3109 3109 3109 3109 3109 3109 3108 3108 3108 3108 3108 3108 3108 3108 3109 3110 3111 3111 3112 3112 3112 3113 3112 3113 3114 3115 3115 3115 3116 3117 3118 3118 3118 3118 3118 3119 3120 3121 3121 3122 3122 3122 3123 3123 3123 3123 3123 3123 3123 3123 3124 3124 3123 3124 3126 3126 3126 3128 3129 3130 3129 3127 3128 3131 3130 3127 3126 3126 3124 3127 3129 3130 3130 3131 3131 3132 3132 3133
3116 3115 3115 3114 3113 3112 3111 3110 3109 3109 3109 3109 3109 3109 3109 3108 3108 3108 3108 3108 3108 3108 3108 3108 3109 3110 3111 3112 3112 3112 3112 3112 3112 3113 3114 3116 3116 3116 3117 3117 3118 3119 3119 3119 3119 3119 3120 3120 3121 3121 3122 3122 3122 3122 3122 3122 3121 3122 3122 3122 3124 3123 3122 3122 3125 3125 3125 3126 3128 3128 3127 3125 3127 3129 3130 3126 3124 3124 3123 3125 3127 3128 3128 3129 3130 3131 3131 3131
3115 3115 3115 3114 3113 3112 3111 3111 3110 3109 3109 3109 3109 3109 3108 3108 3108 3108 3108 3108 3108 3108 3108 3109 3110 3111 3112 3113 3113 3112 3112 3112 3112 3113 3114 3115 3116 3116 3116 3117 3118 3119 3120 3120 3120 3121 3120 3121 3121 3120 3120 3121 3122 3122 3122 3122 3121 3122 3122 3122 3123 3123 3122 3122 3122 3123 3124 3125 3125 3125 3124 3124 3125 3127 3128 3125 3122 3122 3122 3123 3125 3126 3127 3127 3128 3129 3130 3130
3115 3115 3114 3114 3113 3113 3112 3111 3110 3109 3109 3109 3109 3109 3108 3108 3108 3108 3108 3108 3109 3109 3109 3110 3111 3112 3113 3113 3113 3113 3112 3111 3112 3113 3114 3116 3116 3116 3116 3116 3117 3119 3120 3121 3121 3121 3121 3120 3120 3119 3119 3121 3122 3122 3122 3122 3121 3121 3122 3122 3122 3123 3122 3121 3120 3121 3123 3123 3122 3122 3122 3123 3123 3124 3125 3123 3120 3120 3121 3121 3123 3124 3125 3126 3127 3128 3129 3129
3114 3114 3114 3114 3113 3113 3112 3111 3110 3110 3109 3109 3109 3109 3108 3108 3108 3108 3108 3108 3109 3109 3110 3111 3111 3112 3113 3114 3114 3114 3114 3113 3114 3115 3116 3117 3117 3116 3117 3117 3117 3119 3120 3120 3120 3121 3121 3120 3119 3118 3119 3120 3121 3121 3121 3121 3121 3121 3122 3122 3122 3121 3121 3120 3118 3118 3119 3119 3119 3119 3119 3120 3121 3122 3122 3121 3119 3119 3119 3120 3121 3122 3123 3124 3125 3127 3127 3128
3114 3114 3114 3114 3113 3113 3112 3111 3111 3110 3110 3109 3109 3109 3108 3108 3108 3108 3108 3108 3109 3109 3110 3111 3112 3113 3114 3114 3115 3115 3115 3115 3115 3116 3117 3118 3118 3118 3118 3118 3118 3119 3120 3120 3120 3120 3120 3120 3119 3118 3118 3119 3120 3121 3121 3121 3121 3121 3121 3121 3121 3119 3118 3118 3117 3116 3116 3115 3115 3115 3116 3118 3119 3119 3119 3118 3118 3117 3117 3118 3119 3121 3122 3123 3124 3125 3126 3127
3113 3113 3113 3113 3113 3113 3112 3112 3111 3111 3110 3110 3109 3109 3109 3108 3108 3109 3109 3110 3110 3110 3110 3111 3112 3113 3113 3114 3115 3116 3116 3116 3116 3117 3118 3118 3119 3118 3119 3119 3119 3119 3119 3120 3120 3120 3120 3119 3118 3118 3118 3119 3120 3121 3121 3121 3120 3120 3120 3120 3120 3118 3116 3117 3116 3114 3113 3111 3110 3112 3115 3116 3117 3117 3117 3117 3116 3117 3116 3116 3117 3118 3120 3121 3123 3124 3124 3125
3113 3113 3113 3113 3113 3113 3113 3112 3111 3111 3110 3110 3109 3109 3109 3109 3109 3110 3111 3111 3112 3112 3112 3112 3113 3113 3113 3114 3115 3116 3117 3117 3117 3118 3118 3118 3119 3119 3119 3120 3120 3120 3120 3120 3120 3120 3120 3119 3118 3118 3119 3120 3120 3121 3120 3120 3120 3119 3119 3118 3119 3117 3114 3115 3115 3113 3111 3108 3108 3111 3113 3114 3116 3117 3117 3116 3116 3115 3115 3114 3115 3116 3118 3120 3121 3121 3121 3122
3113 3113 3113 3113 3113 3113 3113 3112 3111 3111 3110 3110 3110 3110 3110 3109 3110 3110 3112 3112 3113 3113 3114 3114 3114 3115 3114 3114 3115 3117 3117 3118 3118 3118 3118 3119 3119 3119 3120 3120 3120 3120 3121 3121 3120 3120 3120 3118 3117 3118 3119 3120 3120 3120 3119 3119 3118 3118 3117 3117 3117 3115 3113 3112 3113 3113 3111 3109 3110 3112 3112 3112 3114 3116 3116 3115 3113 3112 3112 3112 3112 3113 3116 3118 3118 3119 3119 3120
3114 3113 3113 3113 3113 3113 3113 3112 3112 3111 3111 3110 3110 3110 3110 3110 3110 3111 3112 3113 3113 3114 3115 3115 3115 3115 3115 3115 3116 3117 3117 3118 3118 3119 3119 3119 3119 3119 3120 3120 3120 3120 3120 3120 3120 3120 3119 3117 3117 3118 3118 3118 3118 3118 3118 3117 3117 3117 3116 3115 3115 3114 3112 3110 3111 3112 3112 3111 3112 3112 3112 3112 3113 3114 3114 3113 3111 3110 3109 3109 3108 3110 3113 3115 3116 3117 3117 3117
3114 3113 3113 3113 3113 3113 3113 3112 3112 3112 3112 3111 3111 3110 3110 3110 3111 3112 3113 3113 3114 3114 3115 3115 3115 3115 3115 3116 3116 3117 3117 3118 3118 3118 3119 3120 3120 3120 3120 3119 3119 3119 3119 3119 3119 3119 3117 3117 3117 3117 3117 3117 3116 3116 3117 3116 3116 3115 3115 3114 3113 3112 3111 3109 3108 3109 3109 3110 3111 3111 3111 3111 3110 3111 3112 3111 3110 3109 3108 3107 3106 3107 3110 3112 3114 3115 3115 3116
3115 3114 3114 3113 3113 3113 3113 3113 3113 3113 3113 3112 3111 3110 3110 3111 3112 3113 3114 3114 3115 3115 3115 3115 3115 3115 3116 3116 3117 3117 3117 3118 3118 3118 3119 3119 3120 3120 3120 3119 3119 3118 3118 3118 3117 3117 3117 3118 3117 3116 3116 3115 3114 3116 3116 3115 3114 3114 3113 3113 3112 3110 3110 3108 3107 3107 3107 3108 3109 3110 3109 3108 3107 3108 3109 3110 3109 3108 3107 3106 3105 3106 3107 3109 3110 3112 3113 3114
3116 3115 3114 3114 3114 3114 3114 3114 3114 3114 3114 3113 3112 3110 3111 3112 3113 3114 3114 3114 3115 3116 3116 3116 3116 3116 3116 3117 3117 3117 3118 3118 3118 3118 3118 3119 3120 3119 3119 3119 3119 3118 3118 3117 3116 3116 3116 3116 3115 3114 3115 3114 3114 3114 3113 3112 3112 3112 3112 3111 3110 3109 3108 3107 3106 3106 3106 3106 3107 3108 3107 3106 3106 3107 3108 3108 3107 3107 3106 3104 3103 3104 3105 3106 3107 3109 3111 3112
3116 3115 3115 3114 3114 3115 3115 3115 3115 3114 3114 3114 3112 3112 3112 3113 3114 3115 3114 3114 3116 3117 3116 3116 3116 3116 3117 3117 3118 3118 3118 3118 3118 3119 3119 3119 3119 3119 3119 3119 3118 3118 3118 3117 3116 3115 3114 3114 3113 3113 3113 3112 3112 3112 3111 3110 3110 3110 3110 3109 3109 3108 3107 3106 3105 3104 3105 3105 3105 3106 3105 3105 3105 3105 3106 3107 3106 3106 3105 3103 3101 3101 3103 3104 3105 3107 3109 3111
3117 3116 3115 3115 3115 3116 3116 3116 3116 3115 3115 3115 3113 3113 3114 3114 3115 3115 3114 3116 3118 3118 3117 3117 3117 3117 3117 3117 3118 3118 3118 3119 3119 3119 3120 3120 3119 3119 3118 3118 3117 3117 3117 3116 3114 3114 3113 3112 3112 3112 3112 3111 3110 3110 3109 3109 3108 3108 3108 3108 3107 3107 3106 3105 3104 3103 3104 3103 3103 3104 3103 3103 3104 3104 3104 3105 3105 3105 3104 3102 3100 3099 3101 3102 3103 3105 3107 3109
3118 3117 3116 3116 3116 3116 3117 3117 3117 3117 3117 3116 3114 3115 3115 3115 3116 3115 3114 3118 3120 3118 3118 3118 3118 3118 3118 3118 3118 3118 3119 3120 3120 3119 3119 3119 3119 3118 3117 3117 3116 3115 3115 3115 3113 3112 3112 3112 3112 3112 3111 3110 3109 3109 3109 3108 3107 3107 3107 3106 3106 3106 3104 3103 3103 3102 3103 3102 3102 3102 3102 3102 3102 3102 3103 3103 3102 3102 3102 3102 3099 3098 3098 3099 3101 3103 3105 3107
3119 3118 3117 3117 3117 3117 3117 3118 3118 3118 3118 3117 3116 3116 3116 3116 3116 3115 3117 3120 3121 3120 3120 3119 3119 3119 3119 3118 3118 3118 3119 3119 3119 3119 3119 3119 3118 3117 3116 3116 3115 3114 3114 3113 3112 3112 3111 3111 3112 3112 3111 3109 3108 3108 3108 3108 3107 3106 3105 3104 3104 3103 3102 3102 3101 3101 3102 3101 3100 3100 3100 3101 3101 3101 3101 3101 3101 3101 3101 3101 3099 3098 3097 3098 3099 3100 3102 3105
3119 3119 3118 3118 3118 3118 3118 3119 3119 3119 3118 3118 3117 3116 3116 3116 3116 3116 3120 3122 3121 3121 3121 3120 3120 3120 3119 3119 3118 3118 3119 3119 3119 3119 3118 3118 3118 3117 3115 3115 3114 3114 3113 3111 3111 3110 3110 3110 3111 3111 3110 3108 3106 3105 3106 3107 3106 3105 3104 3103 3102 3101 3100 3100 3099 3100 3101 3100 3099 3099 3098 3099 3099 3099 3099 3100 3099 3099 3100 3100 3098 3097 3096 3097 3098 3099 3101 3103
3120 3120 3119 3119 3119 3119 3120 3120 3120 3119 3119 3119 3118 3117 3117 3116 3117 3119 3121 3122 3122 3122 3122 3121 3121 3120 3120 3119 3119 3119 3119 3119 3118 3118 3118 3117 3117 3117 3116 3116 3115 3114 3112 3111 3110 3109 3109 3109 3109 3109 3108 3106 3104 3103 3104 3104 3104 3104 3103 3103 3102 3101 3100 3101 3100 3100 3100 3100 3099 3098 3097 3097 3097 3097 3098 3098 3097 3098 3099 3099 3097 3096 3096 3096 3097 3098 3099 3101
3121 3121 3121 3121 3120 3120 3121 3121 3121 3120 3120 3120 3119 3118 3117 3117 3119 3122 3122 3122 3123 3123 3122 3121 3121 3121 3120 3120 3120 3119 3119 3119 3119 3118 3118 3117 3117 3117 3117 3116 3115 3114 3113 3111 3110 3109 3107 3107 3107 3107 3107 3106 3105 3104 3103 3102 3102 3102 3102 3103 3103 3102 3103 3103 3102 3102 3100 3098 3098 3098 3097 3095 3095 3095 3096 3096 3096 3097 3098 3097 3096 3095 3095 3096 3096 3096 3097 3098
3122 3122 3122 3122 3122 3122 3122 3122 3122 3121 3121 3120 3120 3118 3117 3118 3121 3123 3122 3122 3123 3123 3122 3122 3121 3121 3121 3120 3120 3120 3120 3120 3119 3119 3118 3117 3117 3116 3116 3115 3114 3113 3112 3111 3111 3110 3108 3107 3106 3107 3107 3106 3105 3105 3105 3103 3102 3102 3102 3103 3102 3102 3103 3101 3100 3100 3099 3097 3097 3097 3096 3094 3093 3094 3094 3094 3095 3095 3096 3095 3094 3094 3094 3095 3095 3095 3095 3096
3123 3123 3123 3123 3123 3123 3123 3123 3123 3122 3121 3121 3120 3118 3119 3121 3123 3123 3123 3123 3123 3122 3123 3122 3122 3122 3121 3121 3121 3120 3120 3120 3119 3119 3118 3118 3117 3116 3116 3115 3113 3112 3112 3112 3111 3111 3109 3107 3106 3107 3108 3106 3105 3105 3104 3102 3102 3101 3101 3102 3102 3101 3101 3099 3098 3097 3097 3097 3096 3095 3094 3092 3092 3093 3093 3093 3094 3094 3094 3093 3092 3092 3092 3093 3094 3094 3094 3095
3124 3124 3124 3124 3124 3124 3124 3124 3124 3123 3122 3122 3120 3118 3120 3123 3124 3124 3124 3124 3123 3123 3123 3122 3122 3121 3121 3121 3121 3120 3120 3120 3119 3119 3118 3117 3117 3117 3116 3116 3114 3113 3112 3113 3112 3111 3109 3106 3105 3106 3106 3105 3104 3103 3102 3102 3101 3100 3100 3101 3100 3100 3100 3099 3098 3097 3097 3097 3094 3092 3091 3091 3091 3091 3091 3092 3092 3092 3092 3091 3090 3091 3091 3091 3092 3093 3094 3094
3124 3124 3125 3126 3126 3125 3125 3124 3124 3123 3123 3122 3120 3120 3123 3124 3124 3125 3125 3124 3124 3124 3123 3122 3122 3122 3122 3121 3121 3120 3120 3119 3119 3119 3118 3117 3117 3117 3117 3116 3115 3114 3113 3113 3112 3112 3109 3105 3104 3105 3104 3103 3104 3103 3102 3101 3101 3100 3100 3100 3100 3099 3098 3098 3098 3097 3097 3097 3093 3090 3090 3090 3091 3090 3090 3090 3089 3089 3089 3089 3090 3091 3091 3090 3091 3093 3094 3094
3125 3125 3126 3126 3126 3125 3125 3125 3124 3124 3124 3123 3121 3122 3125 3125 3125 3126 3125 3125 3125 3124 3123 3123 3123 3123 3122 3122 3121 3121 3120 3119 3119 3119 3118 3117 3117 3116 3116 3116 3115 3114 3113 3113 3112 3111 3110 3105 3102 3103 3103 3102 3102 3102 3100 3100 3100 3100 3100 3100 3100 3099 3098 3098 3098 3098 3097 3096 3093 3090 3089 3090 3091 3090 3089 3089 3089 3088 3088 3088 3089 3090 3090 3090 3090 3092 3092 3093
3126 3126 3126 3126 3126 3125 3125 3125 3125 3125 3125 3124 3123 3124 3125 3125 3126 3126 3125 3125 3125 3124 3124 3123 3123 3123 3122 3122 3121 3121 3120 3120 3119 3119 3118 3118 3117 3116 3116 3115 3114 3113 3112 3112 3111 3110 3110 3107 3102 3101 3102 3101 3100 3100 3099 3098 3098 3099 3099 3099 3099 3100 3099 3098 3097 3097 3097 3096 3094 3091 3089 3089 3090 3089 3089 3089 3088 3089 3089 3089 3088 3089 3089 3090 3090 3090 3091 3092
3127 3127 3127 3126 3126 3126 3126 3126 3126 3126 3126 3125 3125 3126 3126 3126 3126 3126 3125 3125 3125 3125 3125 3124 3124 3123 3122 3122 3122 3121 3120 3120 3119 3119 3119 3118 3117 3116 3116 3115 3113 3113 3111 3110 3110 3109 3108 3107 3103 3100 3101 3101 3100 3099 3098 3097 3097 3097 3096 3097 3097 3098 3098 3097 3097 3096 3096 3095 3095 3094 3091 3089 3089 3088 3088 3088 3087 3088 3088 3089 3089 3089 3089 3089 3090 3090 3091 3091
3127 3127 3127 3127 3126 3127 3127 3127 3126 3126 3126 3126 3127 3127 3127 3127 3126 3126 3126 3126 3125 3125 3125 3124 3124 3123 3122 3122 3122 3120 3120 3120 3120 3119 3118 3118 3117 3117 3116 3114 3113 3112 3111 3110 3109 3108 3107 3107 3103 3100 3099 3099 3099 3099 3098 3098 3098 3097 3096 3096 3095 3095 3096 3096 3096 3095 3094 3094 3094 3095 3092 3088 3088 3088 3087 3087 3086 3086 3087 3087 3089 3089 3089 3088 3089 3090 3090 3090
3127 3127 3127 3127 3127 3128 3128 3127 3127 3127 3127 3127 3127 3127 3127 3127 3127 3126 3126 3126 3126 3125 3125 3125 3124 3123 3122 3122 3122 3120 3120 3121 3120 3119 3119 3118 3117 3116 3115 3113 3112 3111 3110 3109 3108 3108 3107 3105 3103 3101 3100 3099 3098 3097 3097 3097 3098 3097 3096 3096 3095 3094 3094 3095 3095 3093 3094 3093 3092 3094 3091 3087 3087 3088 3087 3086 3085 3085 3086 3086 3087 3087 3087 3088 3089 3089 3089 3089
3127 3127 3127 3127 3127 3128 3128 3127 3127 3127 3127 3127 3127 3127 3127 3127 3127 3127 3126 3126 3126 3125 3125 3125 3124 3123 3122 3122 3122 3121 3121 3120 3119 3118 3118 3118 3116 3114 3113 3112 3111 3111 3110 3109 3108 3107 3106 3105 3103 3101 3099 3098 3097 3096 3096 3097 3097 3096 3095 3095 3095 3094 3094 3094 3093 3093 3093 3091 3091 3092 3089 3084 3085 3087 3086 3085 3084 3084 3085 3085 3085 3084 3083 3084 3086 3088 3088 3088
3128 3127 3127 3127 3127 3128 3128 3128 3128 3127 3127 3127 3127 3127 3127 3127 3127 3126 3126 3125 3125 3125 3125 3124 3123 3123 3122 3121 3121 3121 3120 3120 3118 3117 3116 3116 3115 3113 3112 3111 3110 3110 3109 3109 3108 3107 3106 3105 3103 3101 3098 3096 3095 3095 3095 3095 3095 3095 3095 3094 3094 3093 3093 3092 3092 3092 3091 3089 3089 3090 3085 3082 3085 3086 3084 3084 3084 3083 3084 3084 3083 3082 3080 3080 3082 3084 3086 3086
3128 3128 3127 3127 3127 3128 3127 3127 3128 3128 3128 3128 3127 3127 3127 3127 3127 3126 3125 3125 3125 3124 3124 3124 3123 3122 3121 3121 3121 3121 3120 3119 3118 3116 3115 3114 3113 3112 3111 3110 3110 3109 3108 3108 3108 3106 3106 3106 3104 3103 3102 3101 3099 3098 3096 3094 3093 3094 3094 3094 3093 3093 3092 3092 3091 3091 3090 3088 3088 3087 3083 3081 3084 3084 3083 3082 3082 3082 3082 3082 3082 3081 3079 3078 3080 3081 3083 3083
3129 3128 3128 3128 3128 3128 3127 3127 3127 3128 3127 3127 3127 3127 3127 3127 3127 3127 3126 3125 3124 3124 3124 3123 3123 3122 3121 3120 3120 3120 3119 3118 3117 3116 3114 3113 3112 3110 3110 3110 3109 3108 3107 3107 3107 3106 3106 3105 3104 3104 3104 3104 3103 3101 3099 3096 3093 3093 3093 3093 3093 3092 3091 3091 3090 3090 3089 3087 3086 3085 3082 3081 3081 3081 3080 3080 3081 3080 3080 3080 3079 3079 3077 3077 3078 3078 3080 3081
3129 3129 3128 3128 3128 3128 3127 3127 3128 3128 3127 3127 3127 3127 3127 3127 3127 3127 3126 3125 3124 3124 3123 3122 3121 3121 3120 3119 3118 3118 3117 3117 3116 3115 3114 3112 3111 3109 3108 3108 3107 3107 3107 3107 3106 3106 3105 3104 3104 3103 3102 3102 3101 3100 3099 3097 3094 3092 3092 3092 3092 3091 3090 3089 3088 3087 3087 3086 3083 3082 3082 3080 3079 3079 3078 3078 3078 3078 3077 3077 3077 3076 3076 3075 3075 3076 3077 3078
3129 3129 3128 3128 3128 3128 3128 3128 3128 3127 3127 3127 3126 3126 3127 3127 3127 3126 3126 3125 3124 3123 3123 3122 3120 3120 3119 3119 3118 3117 3116 3115 3114 3113 3112 3111 3109 3108 3106 3106 3106 3106 3106 3107 3106 3106 3105 3104 3103 3102 3101 3101 3100 3099 3098 3096 3094 3093 3092 3091 3090 3089 3088 3087 3085 3085 3085 3084 3082 3081 3081 3079 3078 3077 3076 3075 3075 3074 3073 3073 3073 3074 3074 3074 3073 3073 3075 3075
3130 3129 3128 3128 3128 3128 3128 3127 3127 3127 3127 3126 3126 3126 3126 3126 3125 3125 3125 3124 3123 3122 3122 3121 3120 3119 3119 3118 3117 3116 3115 3114 3113 3112 3111 3110 3109 3107 3106 3106 3106 3106 3106 3106 3106 3105 3104 3103 3102 3100 3099 3099 3099 3098 3097 3095 3093 3093 3092 3090 3089 3088 3087 3086 3084 3083 3083 3082 3081 3080 3079 3078 3077 3076 3075 3074 3073 3072 3071 3071 3071 3071 3071 3071 3072 3072 3072 3073
3129 3129 3129 3128 3128 3128 3127 3127 3127 3127 3127 3126 3126 3126 3126 3125 3125 3124 3123 3123 3123 3121 3121 3120 3119 3119 3119 3117 3116 3115 3115 3114 3112 3111 3110 3109 3108 3107 3107 3106 3106 3106 3106 3106 3106 3104 3104 3102 3101 3100 3097 3096 3097 3096 3094 3093 3092 3091 3091 3090 3089 3088 3086 3085 3084 3083 3082 3081 3081 3080 3079 3078 3077 3076 3074 3073 3072 3071 3071 3070 3069 3069 3069 3069 3070 3070 3070 3070
3129 3129 3129 3128 3128 3128 3127 3127 3127 3127 3127 3126 3126 3126 3125 3125 3124 3124 3122 3122 3122 3121 3120 3119 3118 3118 3118 3117 3116 3115 3114 3113 3112 3110 3110 3109 3108 3107 3107 3106 3105 3104 3105 3105 3105 3104 3104 3102 3100 3099 3097 3095 3094 3094 3092 3091 3090 3090 3090 3089 3088 3087 3086 3085 3085 3083 3082 3081 3080 3079 3078 3077 3076 3075 3074 3072 3071 3070 3069 3068 3068 3068 3068 3068 3068 3068 3068 3068
3129 3129 3129 3128 3128 3128 3128 3128 3127 3127 3127 3126 3126 3126 3125 3124 3124 3124 3123 3122 3122 3121 3120 3119 3118 3117 3116 3116 3116 3114 3113 3111 3111 3110 3109 3109 3108 3108 3107 3105 3104 3104 3103 3103 3104 3104 3103 3101 3099 3098 3097 3094 3093 3092 3091 3090 3089 3090 3090 3089 3088 3088 3086 3086 3085 3084 3082 3081 3080 3079 3078 3078 3076 3075 3073 3071 3070 3069 3068 3067 3067 3067 3067 3066 3066 3066 3066 3066